[Date Prev][Date Next][Thread Prev][Thread Next] - [Date Index][Thread Index][Author Index]

2 Line ISS Keps 5-24



ISS
1 25544U 98067A   01144.44075231  .00047104  00000-0  56070-3 0  9982
2 25544  51.5694 208.5062 0017952  81.4987 105.2158 15.60438465143367

----
Via the sarex mailing list at AMSAT.ORG courtesy of AMSAT-NA.
To unsubscribe, send "unsubscribe sarex" to Majordomo@amsat.org



AMSAT Top AMSAT Home